Regional Weather Roundup
Issued by NWS

Home | Current Version | Previous Version | Text Only | Print | Product List | Glossary On
Versions: 1 2 3 4 5 6 7 8 9 10 11 12 13 14 15 16 17 18 19 20 21 22 23 24 25 26 27 28 29 30 31 32 33 34 35 36 37 38 39 40 41 42 43 44 45 46 47 48 49 50
000
ASUS43 KFSD 051510
RWRSD

WEATHER ROUNDUP FOR SOUTH DAKOTA
NATIONAL WEATHER SERVICE SIOUX FALLS SD
1000 AM CDT THU MAY 05 2016

NOTE: "FAIR" INDICATES FEW OR NO CLOUDS BELOW 12,000 FEET WITH NO
SIGNIFICANT WEATHER AND/OR OBSTRUCTIONS TO VISIBILITY.


SDZ001>005-009-010-012>017-051600-
NORTHWEST AND NORTH CENTRAL SOUTH DAKOTA

CITY           SKY/WX    TMP DP  RH WIND       PRES   REMARKS
BUFFALO          N/A     64  47  53 CALM      29.88S
FAITH            N/A     64  43  46 S16       29.93S
MOBRIDGE       SUNNY     66  50  56 SE9       29.92F
$$

SDZ012>016-024>037-041>051-057-063-072>074-051600-
SOUTHWEST AND SOUTH CENTRAL SOUTH DAKOTA

CITY           SKY/WX    TMP DP  RH WIND       PRES   REMARKS
RAPID CTY ARPT SUNNY     62  46  55 SE6       29.96S
PIERRE         SUNNY     68  49  50 S7        29.96F
CUSTER         SUNNY     71  33  24 CALM      30.08S
ELLSWORTH AFB  SUNNY     65  48  53 S5        29.95S HAZE
PHILIP         SUNNY     67  48  50 S8        29.95F
PINE RIDGE     SUNNY     67  44  43 S13       30.01S
WINNER         FAIR      68  46  45 SW12      30.02S
$$

SDZ004>011-016>023-039-040-051600-
NORTHEAST SOUTH DAKOTA

CITY           SKY/WX    TMP DP  RH WIND       PRES   REMARKS
ABERDEEN       SUNNY     66  43  43 S10       29.97F
WATERTOWN      SUNNY     66  43  43 SW7       30.01S
BROOKINGS      SUNNY     63  43  48 S6        30.03S
SISSETON         N/A     73  41  31 VRB5      29.94S
$$

SDZ017-020-022-023-036>040-048>070-051600-
SOUTHEAST SOUTH DAKOTA

CITY           SKY/WX    TMP DP  RH WIND       PRES   REMARKS
SIOUX FALLS    MOSUNNY   63  40  42 SW7       30.05S
HURON          SUNNY     65  46  50 S6        30.00S
CHAMBERLAIN    SUNNY     69  49  48 SW10      30.02S
MITCHELL       SUNNY     67  45  45 SW7       30.03F
YANKTON        SUNNY     61  43  51 S5        30.06F
$$

ABBREVIATIONS USED IN REMARKS
   TC - TEMPERATURE IN CELSIUS
  WCI - WIND CHILL INDEX
   HX - HEAT INDEX
  VSB - VISIBILITY





USA.gov is the U.S. government's official web portal to all federal, state and local government web resources and services.